Powrót do katalogu

ONEWEB-0662

AktywnyŁącznośćPO
NORAD 55822·PAYLOAD·🇬🇧 United Kingdom

Wystrzelony Mar 9, 2023 z Cape Canaveral Space Force Station

Loading…

Następne Przeloty (najbliższe 24 godziny)

TLE

ŚwieżeSource: CelesTrak SupGP

Epoka: Sep 14, 2026, 06:38 UTC

1 55822C 23029AC  26257.27691389 -.00001121  00000+0 -30273-2 0  2575
2 55822  87.8893 271.9742 0002219  85.7216  21.3474 13.14504985    14

Śledź ONEWEB-0662 w czasie rzeczywistym z AllMySat

Download on the App Store